Zurück zum Katalog

STARLINK-3136

AktivKommunikationVLEO
NORAD 49443·PAYLOAD·🇺🇸 United States

Gestartet Nov 13, 2021 von Cape Canaveral Space Force Station

Loading…

Nächste Überflüge (nächste 24 Stunden)

TLE

AktuellSource: CelesTrak SupGP

Epoche: Sep 14, 2026, 20:33 UTC

1 49443C 21104AM  26257.85673611  .00030001  00000+0  16576-2 0  2578
2 49443  53.2145  77.3756 0001825  85.9482 195.4881 15.13389628    16

Verfolge STARLINK-3136 in Echtzeit mit AllMySat

Download on the App Store